User: anonymous   Login
Location: Cactus School
(34.5700°N, 118.0931°W)
Time: 11:15:21
(UTC-07:00)
Language:

CUTE 1.7 + AOD 2 - Orbit

View from above orbital plane
View from above orbital plane
View from above satellite
View from above satellite

Ground track
Ground track

The orbit data is extracted from the following two-line orbital elements,

1 32785U 08021C   24146.88683008  .00006363  00000-0  56408-3 0  9998
2 32785  97.7535 112.4076 0012329  46.7421 313.4827 14.96507633872217
Epoch (UTC): 25 May 2024 21:17:02
Eccentricity: 0.0012329
inclination: 97.7535°
perigee height: 569 km
apogee height: 586 km
right ascension of ascending node: 112.4076°
argument of perigee: 46.7421°
revolutions per day: 14.96507633
mean anomaly at epoch: 313.4827°
orbit number at epoch: 87221

The dashed part of the orbit path shows where the satellite is in the earth's shadow,  

DLR